Location: �chenoz-la-M�line
(47.6009°N, 6.1354°E)
Time: 12:51:38
(UTC+00:00)

Meteor 1-31 Rocket - Pass Details

Date: 27 January 2021
Orbit: 521 x 545 km, 97.6° (Epoch: 02 March)

Event Time Altitude Azimuth Distance (km) Brightness Sun altitude
Rises 05:48:20 0° 358° (N) 2,710 6.2 -13.5°
Reaches altitude 10° 05:51:00 10° 338° (NNW) 1,816 5.1 -13.0°
Enters shadow 05:52:39 16° 315° (NW) 1,475 4.5 -12.7°
